Location: Krakow
(50.0830°N, 19.9170°E)
Time: 05:32:52
(UTC+02:00)

Tiros 1 - Pass Details

Date: 17 February 2023
Orbit: 627 x 662 km, 48.4° (Epoch: 25 March)

Event Time Altitude Azimuth Distance (km) Brightness Sun altitude
Rises 23:25:29 0° 281° (W) 2,912 - -51.3°
Reaches altitude 10° 23:27:53 10° 274° (W) 2,003 - -51.4°
Maximum altitude 23:32:12 41° 204° (SSW) 918 - -51.5°
Drops below altitude 10° 23:36:31 10° 135° (SE) 2,005 - -51.6°
Sets 23:38:56 0° 128° (SE) 2,915 - -51.6°
